This demonstration page uses our WeatherBlox Daily Observations layout. Learn more.

Hourly Observations for June 22, 2020

Temp ( °F °C ) Dew Point ( °F °C ) Humidity (%) Winds ( mph kmh ) Pressure ( in mb ) Visibility ( mi km ) Precip ( " mm )
12:54 am 00:54 Clear 69 20.6 62 16.7 78 78 S 5 7 29.78 1008 10 16.0934 0 0
1:54 am 01:54 Clear 70 21.1 62 16.7 76 76 W 10 17 29.75 1007 10 16.0934 0 0
2:54 am 02:54 Clear 69 20.6 62 16.7 78 78 W 9 15 29.77 1008 10 16.0934 0 0
3:54 am 03:54 Clear 69 20.6 62 16.7 78 78 W 8 13 29.76 1008 10 16.0934 0 0
4:54 am 04:54 Clear 68 20 61 16.1 78 78 WNW 9 15 29.77 1008 10 16.0934 0 0
5:54 am 05:54 Mostly Clear 69 20.6 62 16.7 78 78 NNW 7 11 29.78 1008 10 16.0934 0 0
6:54 am 06:54 Mostly Cloudy with Light Rain 68 20 63 17.2 84 84 N 7 11 29.8 1009 10 16.0934 0.001 0.001
7:54 am 07:54 Cloudy 69 20.6 63 17.2 81 81 NNW 8 13 29.83 1010 10 16.0934 0.001 0.001
8:54 am 08:54 Mostly Sunny 73 22.8 64 17.8 74 74 N 10 17 29.84 1010 10 16.0934 0 0
9:54 am 09:54 Sunny 76 24.4 64 17.8 67 67 NNW 12 19 29.84 1010 10 16.0934 0 0
10:54 am 10:54 Mostly Sunny 78 25.6 63 17.2 60 60 NNW 10 17 29.86 1011 10 16.0934 0 0
11:54 am 11:54 Sunny 81 27.2 61 16.1 51 51 NNW 14 22 29.87 1012 10 16.0934 0 0
12:54 pm 12:54 Partly Cloudy 83 28.3 61 16.1 48 48 N 16 26 29.87 1012 10 16.0934 0 0
1:54 pm 13:54 Partly Cloudy 83 28.3 60 15.6 46 46 N 13 20 29.87 1012 10 16.0934 0 0
2:54 pm 14:54 Sunny 84 28.9 60 15.6 44 44 N 8 13 29.85 1011 10 16.0934 0.001 0.001
3:54 pm 15:54 Mostly Sunny 84 28.9 60 15.6 44 44 N 13 20 29.85 1011 10 16.0934 0 0
4:54 pm 16:54 Sunny 81 27.2 59 15 47 47 NNE 9 15 29.85 1011 10 16.0934 0 0
5:22 pm 17:22 Mostly Cloudy with Nearby Thunderstorms 76 24.4 59 15 56 56 N 46 74 29.88 1012 10 16.0934 0 0
5:34 pm 17:34 Cloudy with Heavy Thunderstorms 65 18.3 59 15 81 81 NNW 28 44 29.95 1014 2 3.21868 0.001 0.001
5:41 pm 17:41 Cloudy with Heavy Thunderstorms 63 17.2 59 15 87 87 NNW 28 44 29.94 1014 1 1.60934 0.19 4.826
5:52 pm 17:52 Cloudy with Heavy Thunderstorms 63 17 59 15 88 88 N 14 22 29.93 1014 3 4.82802 0.38 9.652
5:54 pm 17:54 Cloudy with Thunderstorms 63 17.2 59 15 87 87 N 10 17 29.93 1013 3 4.82802 0.39 9.906
6:06 pm 18:06 Cloudy with Light Rain 64 17.8 59 15 84 84 NE 5 7 29.9 1012 9 14.48406 0.02 0.508
6:54 pm 18:54 Sunny 67 19.4 60 15.6 79 79 S 3 6 29.88 1012 10 16.0934 0.02 0.508
7:54 pm 19:54 Sunny 69 20.6 61 16.1 76 76 NW 8 13 29.91 1013 10 16.0934 0 0
8:54 pm 20:54 Sunny 68 20 62 16.7 81 81 N 8 13 29.91 1013 10 16.0934 0 0
9:54 pm 21:54 Clear 68 20 62 16.7 81 81 NW 7 11 29.93 1014 10 16.0934 0 0
10:54 pm 22:54 Clear 66 18.9 61 16.1 84 84 WNW 3 6 29.95 1014 10 16.0934 0 0
11:54 pm 23:54 Clear 65 18.3 60 15.6 84 84 WNW 5 7 29.96 1015 10 16.0934 0 0

Powered by AerisWeather